Weather History for KORH - October, 2013

Change the Weather History Date:

Tuesday, October 15, 2013

  Actual Average Record
Temperature  
Mean Temperature 58 °F 50 °F  
Max Temperature 65 °F 59 °F 85 °F (1956)
Min Temperature 51 °F 42 °F 28 °F (1928)
Degree Days  
Heating Degree Days 7 15  
Month to date heating degree days 122 188  
Since 1 July heating degree days 311 381  
Cooling Degree Days 0 0  
Month to date cooling degree days 1 0  
Year to date cooling degree days 572 468  
Growing Degree Days 8 (Base 50)    
Moisture  
Dew Point 48 °F    
Average Humidity 68    
Maximum Humidity 83    
Minimum Humidity 52    
Precipitation  
Precipitation 0.00 in 0.16 in 3.49 in (1955)
Month to date precipitation 1.17 2.36  
Year to date precipitation 37.42 37.65  
Snow  
Snow 0.00 in 0.00 in 0.90 in (1961)
Month to date snowfall 0.0 0.0  
Since 1 July snowfall 0.0 0.0  
Since 1 September snowfall 0.0 0.0  
Snow Depth 0.00 in    
Sea Level Pressure  
Sea Level Pressure 30.23 in    
Wind  
Wind Speed 5 mph (NE)    
Max Wind Speed 12 mph    
Max Gust Speed 14 mph    
Visibility 10 miles    
Events      
T = Trace of Precipitation, MM = Missing Value Source: NWS Daily Summary

Daily Weather History Graph

Daily Weather History Graph

Search for Another Location

Airport or City:

Trip Planner

Search our weather history database for the weather conditions in past years. The results will help you decide how hot, cold, wet, or windy it might be!

Date:

Astronomy

Oct. 15, 2013 Rise Set
Actual Time 7:00 AM EDT 6:05 PM EDT
Civil Twilight 6:32 AM EDT 6:33 PM EDT
Nautical Twilight 5:59 AM EDT 7:05 PM EDT
Astronomical Twilight 5:27 AM EDT 7:38 PM EDT
Moon 4:11 PM EDT (10/15) 3:16 AM EDT (10/15)
Length of Visible Light 12h 01m
Length of Day
11h 04m
Waxing Gibbous, 87% of the Moon is Illuminated
Oct 15
Waxing Gibbous
Oct 18
Full
Oct 26
Last Quarter
Nov 3
New
Nov 10
First Quarter

Hourly Weather History & Observations

Time (EDT) Temp. Dew Point Humidity Pressure Visibility Wind Dir Wind Speed Gust Speed Precip Events Conditions
12:54 AM 54.0 °F 46.0 °F 75% 30.27 in 10.0 mi West 11.5 mph - N/A   Overcast
1:54 AM 53.1 °F 46.9 °F 80% 30.25 in 10.0 mi West 8.1 mph - N/A   Overcast
2:54 AM 54.0 °F 46.9 °F 77% 30.25 in 10.0 mi WNW 5.8 mph - N/A   Overcast
3:54 AM 57.0 °F 46.9 °F 69% 30.24 in 10.0 mi NNW 4.6 mph - N/A   Overcast
4:54 AM 55.0 °F 48.0 °F 77% 30.25 in 10.0 mi Calm Calm - N/A   Overcast
5:54 AM 55.9 °F 48.0 °F 75% 30.25 in 10.0 mi North 5.8 mph - N/A   Overcast
6:54 AM 55.0 °F 48.0 °F 77% 30.26 in 10.0 mi NE 3.5 mph - N/A   Overcast
7:54 AM 55.9 °F 48.0 °F 75% 30.27 in 10.0 mi NE 4.6 mph - N/A   Overcast
8:54 AM 55.9 °F 48.9 °F 77% 30.27 in 10.0 mi NE 6.9 mph - N/A   Overcast
9:54 AM 57.9 °F 46.9 °F 67% 30.27 in 10.0 mi NE 4.6 mph - N/A   Overcast
10:54 AM 60.1 °F 48.0 °F 64% 30.27 in 10.0 mi NE 6.9 mph - N/A   Overcast
11:54 AM 61.0 °F 48.9 °F 64% 30.26 in 10.0 mi East 5.8 mph - N/A   Overcast
12:54 PM 62.1 °F 48.9 °F 62% 30.25 in 10.0 mi NE 4.6 mph - N/A   Overcast
1:54 PM 63.0 °F 48.9 °F 60% 30.23 in 10.0 mi East 4.6 mph - N/A   Overcast
2:54 PM 64.9 °F 48.9 °F 56% 30.21 in 10.0 mi East 5.8 mph - N/A   Overcast
3:54 PM 64.0 °F 46.9 °F 54% 30.20 in 10.0 mi East 5.8 mph - N/A   Mostly Cloudy
4:54 PM 63.0 °F 48.0 °F 58% 30.19 in 10.0 mi ESE 6.9 mph - N/A   Clear
5:54 PM 61.0 °F 48.9 °F 64% 30.19 in 10.0 mi East 3.5 mph - N/A   Clear
6:54 PM 57.9 °F 48.9 °F 72% 30.21 in 10.0 mi ENE 5.8 mph - N/A   Clear
7:54 PM 55.0 °F 48.0 °F 77% 30.23 in 10.0 mi East 4.6 mph - N/A   Clear
8:54 PM 53.1 °F 48.0 °F 83% 30.22 in 10.0 mi ENE 3.5 mph - N/A   Clear
9:54 PM 53.1 °F 46.9 °F 80% 30.22 in 10.0 mi NE 3.5 mph - N/A   Clear
10:54 PM 52.0 °F 46.9 °F 83% 30.21 in 10.0 mi ENE 5.8 mph - N/A   Overcast
11:42 PM 51.1 °F 46.9 °F 86% 30.18 in 10.0 mi ENE 3.5 mph - N/A   Mostly Cloudy
11:54 PM 52.0 °F 46.9 °F 83% 30.19 in 10.0 mi NE 3.5 mph - N/A   Mostly Cloudy